| time (UTC) | temp C | wind direction | speed KPH | gust KPH | rain 1hr cm | rain 24hr cm | rain mn cm | humidity % | barometer mb |
| 20260504033104 | 11 | 110 | 12.9 | 0.0 | 0.00 | 0.00 | 0.00 | 57 | 1014.0 |
| 20260504032033 | 10 | 110 | 14.5 | 0.0 | 0.00 | 0.00 | 0.00 | 57 | |
| 20260504030239 | 11 | 110 | 12.9 | 0.0 | 0.00 | 0.00 | 0.00 | 53 | 1014.0 |
| 20260504023110 | 12 | 110 | 14.5 | 0.0 | 0.00 | 0.00 | 0.00 | 50 | 1014.0 |
| 20260504022035 | 11 | 110 | 14.5 | 0.0 | 0.00 | 0.00 | 0.00 | 53 | |
| 20260504020105 | 11 | 110 | 14.5 | 0.0 | 0.00 | 0.00 | 0.00 | 53 | 1015.0 |
| 20260504013110 | 12 | 110 | 11.3 | 0.0 | 0.00 | 0.00 | 0.00 | 46 | 1014.0 |
| 20260504012033 | 12 | 110 | 11.3 | 0.0 | 0.00 | 0.00 | 0.00 | 50 | |
| 20260504010241 | 12 | 100 | 11.3 | 0.0 | 0.00 | 0.00 | 0.00 | 50 | 1014.0 |
| 20260504003110 | 12 | 100 | 12.9 | 0.0 | 0.00 | 0.00 | 0.00 | 43 | 1015.0 |
| 20260504002034 | 12 | 100 | 14.5 | 0.0 | 0.00 | 0.00 | 0.00 | 50 | |
| 20260504000105 | 12 | 100 | 12.9 | 0.0 | 0.00 | 0.00 | 0.00 | 43 | 1015.0 |
| 20260503233110 | 12 | 100 | 11.3 | 0.0 | 0.00 | 0.00 | 0.00 | 47 | 1015.0 |
| 20260503232035 | 12 | 100 | 11.3 | 0.0 | 0.00 | 0.00 | 0.00 | 47 | |
| 20260503230239 | 12 | 100 | 11.3 | 0.0 | 0.00 | 0.00 | 0.00 | 47 | 1015.0 |
| 20260503223110 | 13 | 120 | 19.3 | 0.0 | 0.00 | 0.00 | 0.00 | 44 | 1015.0 |
| 20260503222034 | 13 | 120 | 19.3 | 0.0 | 0.00 | 0.00 | 0.00 | 44 | |
| 20260503220113 | 13 | 120 | 16.1 | 0.0 | 0.00 | 0.00 | 0.00 | 44 | 1015.0 |
| 20260503213109 | 15 | 110 | 20.9 | 0.0 | 0.00 | 0.00 | 0.00 | 41 | 1015.0 |
| 20260503212034 | 15 | 110 | 22.5 | 0.0 | 0.00 | 0.00 | 0.00 | 41 | |
| 20260503210113 | 15 | 110 | 20.9 | 0.0 | 0.00 | 0.00 | 0.00 | 41 | 1015.0 |
| 20260503203110 | 15 | 120 | 22.5 | 0.0 | 0.00 | 0.00 | 0.00 | 44 | 1015.0 |
| 20260503202033 | 16 | 120 | 25.7 | 0.0 | 0.00 | 0.00 | 0.00 | 44 | |
| 20260503200113 | 16 | 120 | 25.7 | 0.0 | 0.00 | 0.00 | 0.00 | 44 | 1015.0 |
| 20260503193109 | 16 | 120 | 20.9 | 0.0 | 0.00 | 0.00 | 0.00 | 44 | 1016.0 |
| 20260503192033 | 17 | 130 | 14.5 | 0.0 | 0.00 | 0.00 | 0.00 | 42 | |
| 20260503190105 | 17 | 130 | 14.5 | 0.0 | 0.00 | 0.00 | 0.00 | 42 | 1016.0 |
| 20260503183110 | 17 | 130 | 16.1 | 0.0 | 0.00 | 0.00 | 0.00 | 39 | 1016.0 |
| 20260503182035 | 17 | 130 | 22.5 | 0.0 | 0.00 | 0.00 | 0.00 | 42 | |
| 20260503180242 | 18 | 130 | 19.3 | 0.0 | 0.00 | 0.00 | 0.00 | 37 | 1015.0 |
| 20260503173110 | 20 | 130 | 22.5 | 0.0 | 0.00 | 0.00 | 0.00 | 34 | 1015.0 |
| 20260503172034 | 20 | 130 | 25.7 | 0.0 | 0.00 | 0.00 | 0.00 | 37 | |
| 20260503170105 | 21 | 130 | 24.1 | 0.0 | 0.00 | 0.00 | 0.00 | 32 | 1015.0 |
| 20260503160111 | 21 | 140 | 25.7 | 0.0 | 0.00 | 0.00 | 0.00 | 32 | 1015.0 |
| 20260503150239 | 22 | 140 | 27.4 | 0.0 | 0.00 | 0.00 | 0.00 | 33 | 1016.0 |
| 20260503140112 | 22 | 140 | 27.4 | 0.0 | 0.00 | 0.00 | 0.00 | 33 | 1016.0 |
| 20260503130104 | 22 | 150 | 32.2 | 0.0 | 0.00 | 0.00 | 0.00 | 30 | 1017.0 |
| 20260503120112 | 21 | 130 | 27.4 | 0.0 | 0.00 | 0.00 | 0.00 | 32 | 1018.0 |
| 20260503110111 | 21 | 140 | 27.4 | 0.0 | 0.00 | 0.00 | 0.00 | 32 | 1018.0 |
| 20260503100104 | 20 | 150 | 25.7 | 0.0 | 0.00 | 0.00 | 0.00 | 34 | 1019.0 |
| 20260503090240 | 18 | 140 | 25.7 | 0.0 | 0.00 | 0.00 | 0.00 | 37 | 1019.0 |
| 20260503080110 | 16 | 130 | 20.9 | 0.0 | 0.00 | 0.00 | 0.00 | 44 | 1020.0 |
| 20260503072031 | 15 | 120 | 22.5 | 0.0 | 0.00 | 0.00 | 0.00 | 47 | |
| 20260503070111 | 13 | 120 | 22.5 | 0.0 | 0.00 | 0.00 | 0.00 | 50 | 1019.0 |
| 20260503060111 | 12 | 110 | 14.5 | 0.0 | 0.00 | 0.00 | 0.00 | 54 | 1019.0 |
| 20260503053110 | 11 | 90 | 19.3 | 0.0 | 0.00 | 0.00 | 0.00 | 57 | 1019.0 |
| 20260503052019 | 10 | 90 | 19.3 | 0.0 | 0.00 | 0.00 | 0.00 | 61 | |
| 20260503050239 | 11 | 90 | 14.5 | 0.0 | 0.00 | 0.00 | 0.00 | 57 | 1019.0 |
| 20260503043110 | 10 | 90 | 16.1 | 0.0 | 0.00 | 0.00 | 0.00 | 57 | 1019.0 |
| 20260503042033 | 8 | 90 | 19.3 | 0.0 | 0.00 | 0.00 | 0.00 | 61 | |
| 20260503040110 | 10 | 90 | 16.1 | 0.0 | 0.00 | 0.00 | 0.00 | 57 | 1018.0 |